Regional Weather Roundup
Issued by NWS

Home | Current Version | Previous Version | Text Only | Print | Product List | Glossary Off
Versions: 1 2 3 4 5 6 7 8 9 10 11 12 13 14 15 16 17 18 19 20 21 22 23 24 25 26 27 28 29 30 31 32 33 34 35 36 37 38 39 40 41 42 43 44 45 46 47 48 49 50

000
ASUS45 KTFX 020210
RWRMT
MONTANA REGIONAL WEATHER ROUNDUP
NATIONAL WEATHER SERVICE GREAT FALLS MT
800 PM MDT WED JUL 01 2015

NOTE: "FAIR" INDICATES FEW OR NO CLOUDS BELOW 12000 FEET WITH NO
SIGNIFICANT WEATHER AND/OR OBSTRUCTIONS TO VISIBILITY.

MTZ001>007-043-020300-
WEST OF THE DIVIDE

CITY           SKY/WX    TMP DP  RH WIND       PRES   REMARKS
KALISPELL      PTCLDY    91  44  19 W5        29.97S
MISSOULA       SUNNY     91  39  16 N7        29.97S
BUTTE          SUNNY     84  34  16 N9        30.14R
MULLAN PASS    SUNNY     74  44  34 CALM      30.22S
DEER LODGE       N/A     82  43  24 NW9       30.12R
EUREKA           N/A     90  46  22 N5        29.99R
HAMILTON         N/A     90  45  20 NW2       30.01R
RONAN            N/A     87  54  32 NW3       30.03R
$$

MTZ008-052>055-020300-
SOUTHWEST MONTANA

CITY           SKY/WX    TMP DP  RH WIND       PRES   REMARKS
BOZEMAN        SUNNY     85  44  23 N6        30.05R
DILLON         PTSUNNY   86  44  23 N7        30.08R
W YELLOWSTONE  SUNNY     81  36  19 W8        30.19R
THREE FORKS      N/A     86  39  18 NE5       30.03R
TWIN BRIDGES     N/A     90  39  16 N15       30.05R
$$

MTZ009-010-012-014-046-048-049-054-020300-
EAST SLOPES AND CENTRAL MONTANA

CITY           SKY/WX    TMP DP  RH WIND       PRES   REMARKS
CUT BANK       SUNNY     74  51  44 N14       30.14R
GREAT FALLS    MOSUNNY   77  53  43 N15       30.10R HAZE
MALMSTROM AFB  MOSUNNY   78  53  42 NE13      30.10R
HELENA         SUNNY     82  54  37 N15       30.04R
$$

MTZ011-013-016-021-045-047-050-051-020300-
NORTH CENTRAL MONTANA

CITY           SKY/WX    TMP DP  RH WIND       PRES   REMARKS
HAVRE          MOSUNNY   79  51  37 NW15      30.04R
LEWISTOWN      SUNNY     76  51  41 N3        30.11S
CHINOOK          N/A     77  57  50 NE5       30.03R
FORT BENTON      N/A     79  55  44 N3        30.07R
$$

MTZ017>020-022>027-061-062-020300-
NORTHEAST MONTANA

CITY           SKY/WX    TMP DP  RH WIND       PRES   REMARKS
GLASGOW        PTCLDY    69  50  50 N15       29.99F
JORDAN           N/A     79  51  37 N17       30.01R
SIDNEY         CLOUDY    73  59  60 NW7       30.00R THUNDER
WOLF POINT     TSTM      65  58  78 NE18G25   30.03R
MALTA            N/A     74  54  49 N5        29.98S
PLENTYWOOD       N/A     68  63  83 W10       29.97F
$$

MTZ028>42-056>058-020300-
SOUTHCENTRAL AND SOUTHEAST MONTANA

CITY           SKY/WX    TMP DP  RH WIND       PRES   REMARKS
BAKER          TSTM      64  61  90 NW15G29   30.06R
BILLINGS       PTCLDY    79  53  40 NE21G33   30.05R
LIVINGSTON     SUNNY     87  42  20 NE8       30.06R
MILES CITY     CLOUDY    81  60  48 N8        29.98R
FORSYTH          N/A     70  66  88 W7        30.03R
LAUREL           N/A     82  52  35 N16       30.02R
ROUNDUP          N/A     73  56  55 CALM      29.98R
$$

REGIONAL REPORTS...DAKOTAS

CITY           SKY/WX    TMP DP  RH WIND       PRES   REMARKS
WILLISTON      CLOUDY    73  58  59 NW3       29.96S HAZE
MINOT          MOCLDY    68  64  87 NE5       29.93S FOG
DICKINSON      CLOUDY    70  62  76 SE3       29.95F
BEACH          LGT RAIN  70  70 100 NW5       30.01R
CROSBY         FAIR      68  68 100 CALM      29.96F FOG
BISMARCK       MOCLDY    73  67  81 SE5       29.94S
GRAND FORKS    PTCLDY    70  62  76 S6        29.93R HAZE
FARGO          CLEAR     69  56  62 S6        29.95R
BUFFALO SD       N/A     72  63  73 NE10      29.94R
RAPID CITY     CLEAR     75  63  66 E9        29.99S
$$

REGIONAL REPORTS...WYOMING/IDAHO/WASHINGTON

CITY           SKY/WX    TMP DP  RH WIND       PRES   REMARKS
GILLETTE       CLEAR     75  55  49 E5        30.02F
SHERIDAN       CLEAR     78  60  53 W7        30.00R
BUFFALO WY     PTCLDY    78  55  44 NW8       30.07F
CODY           PTCLDY    82  48  30 N10       30.08S
YELLOWSTONE LA   N/A     76  31  19 VRB5      30.31R
IDAHO FALLS    SUNNY     90  50  25 S9        30.02S
SALMON         SUNNY     90  39  17 N13       29.95R
BOISE          MOSUNNY   97  39  13 NW6       29.89F HX  92
SPOKANE        MOSUNNY   92  39  15 W7        29.95S
$$

REGIONAL REPORTS...ALBERTA

CITY           SKY/WX    TMP DP  RH WIND       PRES   REMARKS
EDMONTON       SUNNY     75  55  50 NW8       30.05R
CALGARY        MOSUNNY   70  52  52 N10       30.15S
LETHBRIDGE     MOSUNNY   75  52  43 N9G17     30.12R
MEDICINE HAT   PTSUNNY   75  55  50 N15G22    30.05R
WATERTON GATE    N/A     68  55  64 NE3         N/A
MILK RIVER       N/A     72  54  53 N12         N/A
ONEFOUR          N/A     73  50  43 NW20G25     N/A
$$

REGIONAL REPORTS...SASKATCHEWAN

CITY           SKY/WX    TMP DP  RH WIND       PRES   REMARKS
SWIFT CURRENT  PTSUNNY   66  59  77 W7        30.01S
REGINA         MOCLDY    73  63  68 N3        29.95S
SASKATOON      PTSUNNY   72  61  68 NW6       29.98R
CYPRESS HILLS    N/A     64  54  68 NW3         N/A
VAL MARIE        N/A     64  57  77 N6          N/A
ASSINIBOIA       N/A     73  63  68 W5          N/A
$$



USA.gov is the U.S. government's official web portal to all federal, state and local government web resources and services.